NOAA 16 DEB, 41404

Orbit data source: Space-Track

NOAA 16 DEB, 41404 is space debris in SSO originally from a launch on Thu, 21 Sep 2000 UTC launched from the Air Force Western Test Range (AFWTR). Debris objects in space refer to the collection of defunct objects orbiting the Earth. Examples of debris include non-operational satellites, rocket bodies, and fragments generated from explosions, collisions, or faulty payload assembly.

Loading next visibility...
Identifier
41404, 2000-055KH
Orbit
SSO
Country
Flag of USUS
Related business
Manufacturer
Unknown
Mission
Spacecraft
Bus & Motor
Unknown
Mass
Unknown
Launch date (UTC)
2000-09-21 (26 years ago)
Launch vehicle
Unknown
Launch site
Air Force Western Test Range (AFWTR)
Object type
Payload
Rocket body
Debris
Shape & HBR
Unknown shape, 0.1 m
Radar Cross Section
Medium (>0.1 m² and <1 m²)

Expand to show TLE details & history
Last TLE update: 9 hours ago

TLE from 9 hours ago
0 NOAA 16 DEB
1 41404U 00055KH  26263.50899591  .00003502  00000-0  84657-3 0  9991
2 41404  99.0062 147.4134 0022555 235.2337 124.6734 14.53641519551871
Epoch: 2026-09-20T12:12Z
TLE epoch observation values (Epoch: 2026-09-20T12:12:57.246Z)
Latitude
-0.00003°
Longitude
-35.22728°
Altitude
725.856 km
Speed
7.488 km/s
True Right ascension
09h 49m 39s
True Declination
0° 00' 00"
Sunlit
Object was in daylight at epoch
Visualization orbit readout
Latitude
Unknown
Longitude
Unknown
Altitude
Unknown
Speed
Unknown
Apparent Right ascension
Unknown
Apparent Declination
Unknown
Sunlit
N/A
Visualization observer readout
Local Sidereal Time
13:44:11
Azimuth
Unknown
Elevation
Unknown
Doppler factor
Unknown
Orbital elements
Apogee altitude
726.898 km
Perigee altitude
694.919 km
Semi-major axis
7,089.045 km
Eccentricity
0.00226
Inclination
99.0062°
RAAN
147.4134°
Arg. of periapsis
235.2337°
True anomaly
124.88562°
Mean anomaly
124.6734°
Eccentric anomaly
124.77954°
Mean motion
3.63632 °/min
Orbital period
99 mins
BSTAR
0.00084657
Loading maneuver chart data...
Computing Atmospheric mass density...
Loading historical data...
Loading historical data...
Loading historical data...
Loading historical data...
Loading historical data...
Loading historical data...
Loading historical data...

Documentation

Showing up to 5 results
|